GLO1983 SBFL-SBGL

Flight info

Callsign GLO1983
Flight time 1h 5m
Altitude 35000
Route EGDED UN857 AKNUB
Aircraft B738/M-SDE2E3FGHIRWXY/LB1

Departure

Time 2026-05-05 14:26
Airport Hercílio Luz International Airport (SBFL)

Arrival

Time 2026-05-05 15:31
Airport Rio Galeão – Tom Jobim International Airport (SBGL)
Time Latitude Longitude Altitude Speed Heading
2026-05-05 13:55 -27.67306 -48.54505 26 ft 0 kts 211°
2026-05-05 14:18 -27.67296 -48.54497 31 ft 4 kts 218°
2026-05-05 14:18 -27.67279 -48.54476 30 ft 4 kts 255°
2026-05-05 14:18 -27.67280 -48.54450 27 ft 2 kts 301°
2026-05-05 14:18 -27.67281 -48.54449 27 ft 1 kts 302°
2026-05-05 14:20 -27.67268 -48.54472 30 ft 10 kts 302°
2026-05-05 14:20 -27.67228 -48.54545 30 ft 11 kts 301°
2026-05-05 14:21 -27.67181 -48.54611 27 ft 11 kts 326°
2026-05-05 14:21 -27.67110 -48.54612 26 ft 11 kts 27°
2026-05-05 14:21 -27.67075 -48.54546 30 ft 11 kts 107°
2026-05-05 14:21 -27.67116 -48.54466 29 ft 15 kts 122°
2026-05-05 14:22 -27.67188 -48.54332 26 ft 24 kts 121°
2026-05-05 14:22 -27.67277 -48.54168 28 ft 24 kts 120°
2026-05-05 14:22 -27.67359 -48.54013 28 ft 23 kts 121°
2026-05-05 14:22 -27.67440 -48.53864 27 ft 22 kts 121°
2026-05-05 14:23 -27.67512 -48.53736 27 ft 18 kts 122°
2026-05-05 14:23 -27.67582 -48.53609 28 ft 25 kts 122°
2026-05-05 14:23 -27.67688 -48.53420 28 ft 29 kts 122°
2026-05-05 14:23 -27.67763 -48.53287 26 ft 7 kts 123°
2026-05-05 14:24 -27.67789 -48.53242 28 ft 7 kts 122°
2026-05-05 14:24 -27.67810 -48.53197 30 ft 7 kts 107°
2026-05-05 14:24 -27.67794 -48.53150 31 ft 7 kts 40°
2026-05-05 14:24 -27.67752 -48.53111 27 ft 8 kts 39°
2026-05-05 14:25 -27.67707 -48.53081 26 ft 8 kts 17°
2026-05-05 14:25 -27.67650 -48.53119 26 ft 13 kts 301°
2026-05-05 14:25 -27.67566 -48.53275 26 ft 49 kts 301°
2026-05-05 14:25 -27.67267 -48.53831 23 ft 115 kts 301°
2026-05-05 14:26 -27.66748 -48.54767 121 ft 159 kts 304°
2026-05-05 14:26 -27.66138 -48.55874 649 ft 174 kts 304°
2026-05-05 14:26 -27.65493 -48.57041 1361 ft 173 kts 300°
2026-05-05 14:26 -27.64873 -48.58236 1993 ft 184 kts 299°
2026-05-05 14:27 -27.64053 -48.59484 2215 ft 213 kts 323°
2026-05-05 14:27 -27.62573 -48.59940 2418 ft 237 kts
2026-05-05 14:27 -27.61052 -48.59181 2790 ft 252 kts 36°
2026-05-05 14:27 -27.59625 -48.57961 3414 ft 259 kts 37°
2026-05-05 14:28 -27.58170 -48.56760 4215 ft 260 kts 35°
2026-05-05 14:28 -27.56662 -48.55570 4834 ft 268 kts 33°
2026-05-05 14:28 -27.55122 -48.54412 5556 ft 267 kts 32°
2026-05-05 14:28 -27.53547 -48.53266 6259 ft 270 kts 31°
2026-05-05 14:29 -27.51949 -48.52121 6960 ft 274 kts 31°
2026-05-05 14:29 -27.50327 -48.50967 7646 ft 278 kts 31°
2026-05-05 14:29 -27.48696 -48.49781 8329 ft 281 kts 36°
2026-05-05 14:29 -27.47403 -48.48092 8884 ft 293 kts 57°
2026-05-05 14:30 -27.46362 -48.46065 9411 ft 303 kts 59°
2026-05-05 14:30 -27.45330 -48.43968 10071 ft 308 kts 59°
2026-05-05 14:30 -27.44289 -48.41846 10437 ft 324 kts 59°
2026-05-05 14:30 -27.43154 -48.39549 10591 ft 346 kts 59°
2026-05-05 14:31 -27.41946 -48.37127 10900 ft 361 kts 59°
2026-05-05 14:31 -27.40704 -48.34646 11443 ft 366 kts 59°
2026-05-05 14:31 -27.39445 -48.32141 12089 ft 368 kts 59°
2026-05-05 14:31 -27.38181 -48.29634 12740 ft 371 kts 59°
2026-05-05 14:32 -27.36901 -48.27095 13365 ft 374 kts 59°
2026-05-05 14:32 -27.35609 -48.24538 13988 ft 378 kts 60°
2026-05-05 14:32 -27.34300 -48.21951 14543 ft 382 kts 60°
2026-05-05 14:32 -27.32986 -48.19350 15115 ft 385 kts 60°
2026-05-05 14:33 -27.31659 -48.16720 15746 ft 387 kts 60°
2026-05-05 14:33 -27.30327 -48.14081 16318 ft 391 kts 60°
2026-05-05 14:33 -27.28974 -48.11400 16838 ft 396 kts 60°
2026-05-05 14:33 -27.27609 -48.08699 17362 ft 400 kts 60°
2026-05-05 14:34 -27.26226 -48.05963 17886 ft 404 kts 61°
2026-05-05 14:34 -27.24834 -48.03209 18414 ft 408 kts 61°
2026-05-05 14:34 -27.23424 -48.00424 18872 ft 411 kts 61°
2026-05-05 14:34 -27.22003 -47.97618 19338 ft 414 kts 60°
2026-05-05 14:35 -27.20570 -47.94791 19791 ft 418 kts 60°
2026-05-05 14:35 -27.19142 -47.91975 20245 ft 421 kts 60°
2026-05-05 14:35 -27.17666 -47.89067 20713 ft 425 kts 60°
2026-05-05 14:35 -27.16197 -47.86174 21154 ft 428 kts 60°
2026-05-05 14:36 -27.14863 -47.83546 21557 ft 431 kts 60°
2026-05-05 14:36 -27.13368 -47.80605 22004 ft 435 kts 60°
2026-05-05 14:36 -27.11933 -47.77785 22417 ft 438 kts 60°
2026-05-05 14:36 -27.11365 -47.76668 22581 ft 439 kts 60°
2026-05-05 14:37 -27.10513 -47.74997 22829 ft 441 kts 60°
2026-05-05 14:37 -27.08980 -47.72003 23252 ft 444 kts 59°
2026-05-05 14:37 -27.07429 -47.68987 23665 ft 447 kts 59°
2026-05-05 14:37 -27.05871 -47.65962 24027 ft 450 kts 59°
2026-05-05 14:38 -27.04297 -47.62907 24393 ft 453 kts 59°
2026-05-05 14:38 -27.02718 -47.59843 24767 ft 455 kts 59°
2026-05-05 14:38 -27.01133 -47.56768 25162 ft 456 kts 59°
2026-05-05 14:38 -26.99540 -47.53677 25523 ft 459 kts 59°
2026-05-05 14:39 -26.97941 -47.50577 25860 ft 461 kts 59°
2026-05-05 14:39 -26.96326 -47.47448 26193 ft 464 kts 59°
2026-05-05 14:39 -26.94706 -47.44312 26527 ft 467 kts 59°
2026-05-05 14:39 -26.93073 -47.41152 26863 ft 469 kts 59°
2026-05-05 14:40 -26.91436 -47.37986 27194 ft 472 kts 59°
2026-05-05 14:40 -26.89783 -47.34794 27524 ft 474 kts 59°
2026-05-05 14:40 -26.88026 -47.31667 27824 ft 476 kts 51°
2026-05-05 14:40 -26.85831 -47.28889 28149 ft 477 kts 45°
2026-05-05 14:41 -26.83530 -47.26276 28460 ft 478 kts 44°
2026-05-05 14:41 -26.81169 -47.23626 28754 ft 481 kts 44°
2026-05-05 14:41 -26.78821 -47.20935 29026 ft 484 kts 45°
2026-05-05 14:41 -26.76496 -47.18204 29337 ft 486 kts 45°
2026-05-05 14:42 -26.74174 -47.15441 29630 ft 488 kts 46°
2026-05-05 14:42 -26.72630 -47.13602 29817 ft 489 kts 46°
2026-05-05 14:42 -26.69502 -47.09864 30183 ft 492 kts 46°
2026-05-05 14:42 -26.67954 -47.08007 30354 ft 494 kts 46°
2026-05-05 14:43 -26.65606 -47.05192 30560 ft 496 kts 46°
2026-05-05 14:43 -26.63246 -47.02364 30835 ft 496 kts 46°
2026-05-05 14:43 -26.60894 -46.99550 31153 ft 496 kts 46°
2026-05-05 14:43 -26.58535 -46.96742 31485 ft 495 kts 46°
2026-05-05 14:44 -26.56165 -46.93952 31770 ft 495 kts 45°
2026-05-05 14:44 -26.53781 -46.91161 32026 ft 496 kts 45°
2026-05-05 14:44 -26.51399 -46.88375 32307 ft 496 kts 45°
2026-05-05 14:44 -26.49018 -46.85587 32611 ft 495 kts 45°
2026-05-05 14:45 -26.46644 -46.82806 32920 ft 495 kts 45°
2026-05-05 14:45 -26.44270 -46.80023 33193 ft 495 kts 45°
2026-05-05 14:45 -26.41894 -46.77239 33452 ft 495 kts 45°
2026-05-05 14:45 -26.39521 -46.74461 33736 ft 495 kts 45°
2026-05-05 14:46 -26.37144 -46.71680 34002 ft 495 kts 45°
2026-05-05 14:46 -26.34798 -46.68939 34258 ft 495 kts 45°
2026-05-05 14:46 -26.32418 -46.66160 34510 ft 494 kts 45°
2026-05-05 14:46 -26.30046 -46.63390 34748 ft 493 kts 45°
2026-05-05 14:47 -26.27673 -46.60619 34957 ft 494 kts 45°
2026-05-05 14:47 -26.25300 -46.57851 35154 ft 494 kts 45°
2026-05-05 14:47 -26.20527 -46.52287 35194 ft 498 kts 45°
2026-05-05 14:48 -26.15747 -46.46723 35184 ft 494 kts 45°
2026-05-05 14:48 -26.11016 -46.41221 35192 ft 491 kts 45°
2026-05-05 14:49 -26.06292 -46.35737 35196 ft 490 kts 45°
2026-05-05 14:49 -26.01609 -46.30305 35193 ft 489 kts 45°
2026-05-05 14:50 -25.96888 -46.24836 35192 ft 489 kts 45°
2026-05-05 14:50 -25.92173 -46.19382 35192 ft 490 kts 45°
2026-05-05 14:51 -25.87449 -46.13922 35201 ft 490 kts 45°
2026-05-05 14:51 -25.82707 -46.08450 35190 ft 491 kts 45°
2026-05-05 14:52 -25.77987 -46.03008 35190 ft 492 kts 45°
2026-05-05 14:52 -25.73232 -45.97533 35192 ft 493 kts 45°
2026-05-05 14:53 -25.68475 -45.92061 35195 ft 492 kts 45°
2026-05-05 14:53 -25.63713 -45.86593 35187 ft 492 kts 45°
2026-05-05 14:54 -25.58961 -45.81148 35189 ft 491 kts 45°
2026-05-05 14:54 -25.54208 -45.75708 35190 ft 490 kts 45°
2026-05-05 14:55 -25.49472 -45.70291 35182 ft 489 kts 45°
2026-05-05 14:55 -25.44774 -45.64923 35190 ft 488 kts 45°
2026-05-05 14:56 -25.40024 -45.59502 35187 ft 487 kts 45°
2026-05-05 14:56 -25.35303 -45.54122 35191 ft 487 kts 45°
2026-05-05 14:57 -25.30627 -45.48798 35189 ft 486 kts 45°
2026-05-05 14:57 -25.25902 -45.43425 35191 ft 486 kts 45°
2026-05-05 14:58 -25.21186 -45.38070 35191 ft 486 kts 45°
2026-05-05 14:58 -25.16462 -45.32710 35189 ft 486 kts 45°
2026-05-05 14:59 -25.11738 -45.27358 35184 ft 487 kts 45°
2026-05-05 14:59 -25.07036 -45.22036 35187 ft 487 kts 45°
2026-05-05 15:00 -25.03071 -45.17554 35187 ft 487 kts 45°
2026-05-05 15:00 -24.97569 -45.11342 35188 ft 487 kts 45°
2026-05-05 15:01 -24.92829 -45.05997 35186 ft 487 kts 45°
2026-05-05 15:01 -24.88083 -45.00651 35182 ft 487 kts 45°
2026-05-05 15:02 -24.83339 -44.95313 35181 ft 487 kts 45°
2026-05-05 15:02 -24.78594 -44.89980 35180 ft 487 kts 45°
2026-05-05 15:03 -24.73885 -44.84693 35180 ft 487 kts 44°
2026-05-05 15:03 -24.69140 -44.79374 35193 ft 486 kts 44°
2026-05-05 15:04 -24.64397 -44.74061 35172 ft 486 kts 44°
2026-05-05 15:04 -24.59657 -44.68758 35182 ft 486 kts 44°
2026-05-05 15:05 -24.52559 -44.60827 35191 ft 485 kts 44°
2026-05-05 15:06 -24.47424 -44.56091 35176 ft 480 kts 28°
2026-05-05 15:06 -24.41581 -44.52787 34954 ft 463 kts 24°
2026-05-05 15:07 -24.35906 -44.49703 34842 ft 447 kts 24°
2026-05-05 15:07 -24.33144 -44.48183 34570 ft 444 kts 24°
2026-05-05 15:07 -24.30362 -44.46641 34204 ft 453 kts 24°
2026-05-05 15:07 -24.27511 -44.45055 33792 ft 463 kts 25°
2026-05-05 15:08 -24.24690 -44.43479 33334 ft 459 kts 25°
2026-05-05 15:08 -24.21819 -44.41873 32910 ft 456 kts 25°
2026-05-05 15:08 -24.19043 -44.40320 32502 ft 452 kts 25°
2026-05-05 15:08 -24.16250 -44.38759 32092 ft 449 kts 25°
2026-05-05 15:09 -24.13477 -44.37211 31675 ft 446 kts 25°
2026-05-05 15:09 -24.10720 -44.35674 31313 ft 442 kts 25°
2026-05-05 15:09 -24.07982 -44.34149 30905 ft 439 kts 25°
2026-05-05 15:09 -24.05270 -44.32638 30515 ft 436 kts 25°
2026-05-05 15:10 -24.02572 -44.31137 30107 ft 434 kts 25°
2026-05-05 15:10 -23.99887 -44.29643 29659 ft 431 kts 25°
2026-05-05 15:10 -23.97226 -44.28162 29233 ft 428 kts 25°
2026-05-05 15:10 -23.94589 -44.26697 28828 ft 424 kts 25°
2026-05-05 15:11 -23.92033 -44.25106 28378 ft 422 kts 36°
2026-05-05 15:11 -23.89908 -44.22995 28036 ft 416 kts 49°
2026-05-05 15:11 -23.88206 -44.20454 27641 ft 413 kts 63°
2026-05-05 15:11 -23.86951 -44.17653 27281 ft 408 kts 67°
2026-05-05 15:12 -23.85769 -44.14847 27088 ft 405 kts 66°
2026-05-05 15:12 -23.84561 -44.12038 26523 ft 416 kts 66°
2026-05-05 15:12 -23.83311 -44.09202 26159 ft 413 kts 66°
2026-05-05 15:12 -23.81800 -44.06545 25709 ft 415 kts 48°
2026-05-05 15:13 -23.79555 -44.04588 25361 ft 413 kts 29°
2026-05-05 15:13 -23.76898 -44.03441 24970 ft 411 kts 11°
2026-05-05 15:13 -23.74071 -44.03109 24602 ft 407 kts
2026-05-05 15:13 -23.71247 -44.02964 24195 ft 406 kts
2026-05-05 15:14 -23.68434 -44.02837 23834 ft 404 kts
2026-05-05 15:14 -23.65618 -44.02693 23386 ft 402 kts
2026-05-05 15:14 -23.62834 -44.02531 22988 ft 398 kts
2026-05-05 15:14 -23.60076 -44.02357 22604 ft 395 kts
2026-05-05 15:15 -23.57373 -44.02183 22234 ft 391 kts
2026-05-05 15:15 -23.54666 -44.02008 22083 ft 381 kts
2026-05-05 15:15 -23.52056 -44.01840 22066 ft 371 kts
2026-05-05 15:15 -23.49471 -44.01675 22087 ft 376 kts
2026-05-05 15:16 -23.46825 -44.01506 22101 ft 386 kts
2026-05-05 15:16 -23.44127 -44.01335 22103 ft 389 kts
2026-05-05 15:16 -23.41434 -44.01165 22095 ft 386 kts
2026-05-05 15:16 -23.38754 -44.00997 22086 ft 383 kts
2026-05-05 15:17 -23.36118 -44.00831 21996 ft 378 kts
2026-05-05 15:17 -23.33522 -44.00667 22002 ft 380 kts
2026-05-05 15:17 -23.30867 -44.00500 21997 ft 384 kts
2026-05-05 15:17 -23.28157 -44.00329 21989 ft 385 kts
2026-05-05 15:18 -23.25525 -44.00163 21977 ft 384 kts
2026-05-05 15:18 -23.22860 -43.99995 21973 ft 383 kts
2026-05-05 15:18 -23.20203 -43.99828 21971 ft 382 kts
2026-05-05 15:18 -23.17549 -43.99661 21972 ft 382 kts
2026-05-05 15:19 -23.14896 -43.99494 21971 ft 381 kts
2026-05-05 15:19 -23.12246 -43.99328 21974 ft 381 kts
2026-05-05 15:19 -23.09602 -43.99162 21972 ft 381 kts
2026-05-05 15:19 -23.06955 -43.98996 21971 ft 381 kts
2026-05-05 15:20 -23.04303 -43.98829 21975 ft 381 kts
2026-05-05 15:20 -23.01660 -43.98654 21972 ft 380 kts
2026-05-05 15:20 -22.99158 -43.97915 21660 ft 370 kts 30°
2026-05-05 15:20 -22.97200 -43.96173 21032 ft 364 kts 54°
2026-05-05 15:21 -22.95863 -43.93847 20360 ft 362 kts 63°
2026-05-05 15:21 -22.94694 -43.91428 19717 ft 361 kts 64°
2026-05-05 15:21 -22.93550 -43.89005 19106 ft 359 kts 64°
2026-05-05 15:21 -22.92375 -43.86525 17256 ft 386 kts 64°
2026-05-05 15:22 -22.91111 -43.83886 15366 ft 410 kts 64°
2026-05-05 15:22 -22.89754 -43.81080 13932 ft 421 kts 63°
2026-05-05 15:22 -22.88407 -43.78323 13227 ft 405 kts 63°
2026-05-05 15:22 -22.87099 -43.75657 12332 ft 397 kts 63°
2026-05-05 15:23 -22.85817 -43.73045 11480 ft 389 kts 63°
2026-05-05 15:23 -22.84555 -43.70476 10650 ft 383 kts 63°
2026-05-05 15:23 -22.83334 -43.67992 10469 ft 360 kts 63°
2026-05-05 15:23 -22.82200 -43.65688 10442 ft 335 kts 63°
2026-05-05 15:24 -22.81139 -43.63529 10368 ft 315 kts 64°
2026-05-05 15:24 -22.80137 -43.61488 10251 ft 299 kts 64°
2026-05-05 15:24 -22.79184 -43.59552 10021 ft 288 kts 64°
2026-05-05 15:24 -22.78238 -43.57626 9554 ft 288 kts 64°
2026-05-05 15:25 -22.77293 -43.55716 9105 ft 286 kts 61°
2026-05-05 15:25 -22.75953 -43.54137 8559 ft 290 kts 31°
2026-05-05 15:25 -22.74100 -43.53299 8152 ft 288 kts 17°
2026-05-05 15:25 -22.72189 -43.52702 7733 ft 286 kts 16°
2026-05-05 15:26 -22.70284 -43.52071 7291 ft 285 kts 25°
2026-05-05 15:26 -22.68769 -43.50801 6866 ft 280 kts 56°
2026-05-05 15:26 -22.68016 -43.48879 6437 ft 273 kts 83°
2026-05-05 15:26 -22.68126 -43.46887 5953 ft 266 kts 110°
2026-05-05 15:27 -22.68966 -43.45120 5476 ft 255 kts 124°
2026-05-05 15:27 -22.69921 -43.43562 4614 ft 260 kts 125°
2026-05-05 15:27 -22.70973 -43.41939 3875 ft 262 kts 127°
2026-05-05 15:27 -22.72051 -43.40363 3184 ft 258 kts 126°
2026-05-05 15:28 -22.73079 -43.38822 2719 ft 244 kts 125°
2026-05-05 15:28 -22.74031 -43.37375 2377 ft 229 kts 125°
2026-05-05 15:28 -22.74917 -43.36018 2086 ft 212 kts 125°
2026-05-05 15:28 -22.75467 -43.35179 1919 ft 202 kts 126°
2026-05-05 15:29 -22.76253 -43.33986 1671 ft 188 kts 125°
2026-05-05 15:29 -22.76981 -43.32877 1470 ft 171 kts 125°
2026-05-05 15:29 -22.77643 -43.31862 1218 ft 155 kts 125°
2026-05-05 15:29 -22.78227 -43.30974 1014 ft 140 kts 125°
2026-05-05 15:30 -22.79006 -43.29797 870 ft 154 kts 125°
2026-05-05 15:30 -22.79420 -43.29163 683 ft 155 kts 124°
2026-05-05 15:30 -22.80030 -43.28219 524 ft 153 kts 125°
2026-05-05 15:30 -22.80657 -43.27277 297 ft 153 kts 124°
2026-05-05 15:31 -22.81236 -43.26378 69 ft 137 kts 124°
2026-05-05 15:31 -22.81751 -43.25600 23 ft 113 kts 126°
2026-05-05 15:31 -22.82143 -43.25013 25 ft 79 kts 126°
2026-05-05 15:31 -22.82323 -43.24713 18 ft 31 kts 113°
2026-05-05 15:32 -22.82363 -43.24522 18 ft 10 kts 96°
2026-05-05 15:32 -22.82359 -43.24450 17 ft 10 kts 60°
2026-05-05 15:32 -22.82306 -43.24400 17 ft 11 kts 37°
2026-05-05 15:32 -22.82247 -43.24352 21 ft 10 kts 34°
2026-05-05 15:33 -22.82185 -43.24306 20 ft 12 kts 34°
2026-05-05 15:33 -22.82102 -43.24339 20 ft 17 kts 307°
2026-05-05 15:33 -22.82027 -43.24452 20 ft 19 kts 305°
2026-05-05 15:33 -22.81953 -43.24565 20 ft 18 kts 307°
2026-05-05 15:34 -22.81883 -43.24606 20 ft 11 kts 29°
2026-05-05 15:34 -22.81820 -43.24559 20 ft 11 kts 35°
2026-05-05 15:34 -22.81758 -43.24511 22 ft 11 kts 36°
2026-05-05 15:34 -22.81701 -43.24466 23 ft 0 kts 37°
2026-05-05 15:35 -22.81692 -43.24454 21 ft 7 kts 59°
2026-05-05 15:35 -22.81659 -43.24406 21 ft 9 kts 18°
2026-05-05 15:35 -22.81609 -43.24432 21 ft 3 kts 328°
2026-05-05 15:36 -22.81595 -43.24441 21 ft 4 kts 328°
2026-05-05 15:36 -22.81577 -43.24453 21 ft 0 kts 328°
2026-05-05 15:37 -22.81578 -43.24453 21 ft 0 kts 328°